Torna al catalogo

COSMOS 249 DEB

AttivoLEO
NORAD 18551·DEBRIS·🇷🇺 Russia

Lanciato Oct 20, 1968 da Baikonur Cosmodrome

Loading…

Prossimi Passaggi (prossime 24 ore)

TLE

AggiornatoSource: Space-Track

Epoca: Sep 14, 2026, 10:20 UTC

1 18551U 68091DF  26257.43062594  .00000596  00000-0  31083-3 0  9997
2 18551  62.2960 260.7305 0690228 211.3328 227.6538 13.40123628658492

Traccia COSMOS 249 DEB in tempo reale con AllMySat

Download on the App Store